Location: Cahas Mountain Overlook
(37.0833°N, 80.1000°W)
Time: 18:56:37
(UTC-05:00)

Vanguard 3 - Pass Details

Date: 07 December 2023
Orbit: 508 x 3239 km, 33.4° (Epoch: 23 February)

Event Time Altitude Azimuth Distance (km) Brightness Sun altitude
Rises 17:33:02 0° 196° (SSW) 7,187 12.6 -6.2°
Reaches altitude 10° 17:40:09 10° 182° (S) 6,095 11.9 -7.5°
Maximum altitude 17:51:42 20° 144° (SE) 4,821 10.9 -9.6°
Drops below altitude 10° 18:01:08 10° 105° (ESE) 4,930 10.6 -11.4°
Enters shadow 18:02:51 - 99° (E) 5,097 10.7 -11.7°
